Location: Champignolles
(47.0543°N, 4.5663°E)
Time: 06:40:35
(UTC+00:00)

BREEZE-M DEB (TANK) - Pass Details

Date: 30 November 2020
Orbit: 303 x 17164 km, 49.4° (Epoch: 18 January)

Event Time Altitude Azimuth Distance (km) Brightness Sun altitude
Rises 16:34:58 0° 254° (WSW) 2,592 8.6 -6.9°
Reaches altitude 10° 16:37:20 10° 255° (WSW) 1,327 6.5 -7.2°
Maximum altitude 16:39:41 80° 344° (NNW) 313 1.6 -7.6°
Enters shadow 16:41:51 11° 71° (ENE) 1,234 3.9 -7.9°
